Date,TemperatureHighF,TemperatureAvgF,TemperatureLowF,DewpointHighF,DewpointAvgF,DewpointLowF,HumidityHigh,HumidityAvg,HumidityLow,PressureMaxIn,PressureMinIn,WindSpeedMaxMPH,WindSpeedAvgMPH,GustSpeedMaxMPH,PrecipitationSumIn
2013-1-1,55,32,36,45,8,-100,92,66,63,30.02,29.46,6,-209,6,0.02
2013-1-2,50,44,36,48,41,21,92,90,87,30.29,30.02,5,-6,5,0.00
2013-1-3,55,50,47,51,48,45,93,90,85,30.58,30.29,4,0,4,0.00
2013-1-4,50,48,46,46,44,43,91,87,82,30.62,30.56,5,0,5,0.00
2013-1-5,51,48,44,48,45,42,93,91,88,30.57,30.47,5,0,5,0.00
2013-1-6,47,42,42,45,34,-100,94,87,49,30.49,30.34,8,-58,8,0.00
2013-1-7,47,32,44,44,0,-100,94,65,49,30.34,30.21,9,-294,9,0.00
2013-1-8,48,11,47,45,-67,-100,93,20,88,30.24,30.14,5,-771,5,0.02
2013-1-9,50,38,35,47,21,-100,94,79,87,30.14,30.03,3,-138,3,0.14
2013-1-10,42,16,34,40,-43,-100,93,42,92,30.03,29.88,2,-558,2,0.00
2013-1-11,45,17,35,42,-43,-100,93,38,87,30.05,29.93,3,-559,3,0.00
2013-1-12,-200,0,200,-100,-100,-100,0,0,100,29.93,29.77,0,-999,0,0.00
2013-1-13,42,6,32,34,-79,-100,86,14,74,30.10,29.90,2,-828,2,0.25
2013-1-14,-200,0,200,-100,-100,-100,0,0,100,30.06,29.60,0,-999,0,0.00
2013-1-15,-200,0,200,-100,-100,-100,0,0,100,29.83,29.60,0,-999,0,0.00
2013-1-16,-200,0,200,-100,-100,-100,0,0,100,29.99,29.78,0,-999,0,0.00
2013-1-17,35,1,35,30,-96,-100,83,2,41,30.04,29.83,3,-971,3,0.00
2013-1-18,-200,0,200,-100,-100,-100,0,0,100,29.83,29.35,0,-999,0,0.00
2013-1-19,35,11,30,30,-56,-100,92,30,50,29.42,29.33,11,-657,11,0.00
2013-1-20,-200,0,200,-100,-100,-100,0,0,100,29.40,29.23,0,-999,0,0.00
2013-1-21,-200,0,200,-100,-100,-100,0,0,100,29.46,29.21,0,-999,0,0.00
2013-1-22,-200,0,200,-100,-100,-100,0,0,100,29.62,29.45,0,-999,0,0.00
2013-1-23,33,1,33,30,-98,-100,91,1,91,29.75,29.62,2,-982,2,0.00
2013-1-24,-200,0,200,-100,-100,-100,0,0,100,30.11,29.75,0,-999,0,0.00
2013-1-25,-200,0,200,-100,-100,-100,0,0,100,30.09,29.50,0,-999,0,0.00
2013-1-26,46,8,37,43,-73,-100,93,17,80,29.81,29.50,13,-792,13,0.37
2013-1-27,58,29,40,47,-12,-100,93,50,59,29.59,29.23,9,-354,9,0.16
2013-1-28,51,25,40,48,-25,-100,94,46,82,29.80,29.50,17,-462,17,0.12
2013-1-29,55,49,48,52,40,-100,94,88,86,29.63,29.52,18,-63,18,0.10
2013-1-30,62,49,43,51,44,37,94,82,59,30.02,29.47,13,-2,13,0.12
2013-1-31,53,47,44,44,41,38,91,79,66,30.01,29.77,13,2,13,0.08
2013-2-1,47,41,37,42,35,-100,92,86,81,29.82,29.42,8,-20,8,0.16
2013-2-2,49,26,30,37,-10,-100,91,54,58,30.22,29.55,4,-301,4,0.00
2013-2-3,48,27,29,45,-16,-100,89,51,78,30.23,29.88,11,-393,11,0.00
2013-2-4,51,47,42,46,40,35,89,78,60,29.93,29.70,10,2,10,0.00
2013-2-5,47,30,33,37,0,-100,87,60,55,29.70,29.31,8,-248,8,0.04
2013-2-6,43,31,35,37,3,-100,86,59,69,30.03,29.33,9,-210,9,0.02
2013-2-7,42,20,34,33,-31,-100,88,41,67,30.09,29.95,5,-485,5,0.00
2013-2-8,49,20,35,38,-32,-100,88,40,61,30.11,29.99,6,-490,6,0.00
2013-2-9,38,21,34,35,-22,-100,92,54,85,30.12,29.81,5,-403,5,0.08
2013-2-10,41,28,35,39,1,-100,94,70,93,29.81,29.16,10,-245,10,0.57
2013-2-11,36,32,32,34,23,-100,94,87,93,29.71,29.20,6,-62,6,0.00
2013-2-12,36,18,32,32,-27,-100,93,49,83,30.09,29.71,3,-451,3,0.00
2013-2-13,39,17,32,38,-39,-100,93,40,74,30.16,29.94,13,-531,13,0.00
2013-2-14,61,35,38,49,9,-100,95,67,65,29.95,29.71,10,-228,10,0.04
2013-2-15,54,39,34,43,27,-100,92,79,62,30.17,29.94,4,-34,4,0.00
2013-2-16,51,41,33,43,36,29,89,82,68,30.20,30.14,4,-3,4,0.00
2013-2-17,59,34,30,44,12,-100,92,67,54,30.16,30.04,6,-151,6,0.00
2013-2-18,59,34,31,44,16,-100,93,69,58,30.10,30.04,8,-124,8,0.00
2013-2-19,66,25,31,47,-23,-100,88,42,50,30.09,30.00,3,-427,3,0.00
2013-2-20,53,23,31,41,-19,-100,92,50,61,30.20,30.05,6,-364,6,0.00
2013-2-21,40,12,32,27,-57,-100,77,25,60,30.21,30.10,7,-638,7,0.00
2013-2-22,35,4,33,26,-87,-100,72,7,69,30.11,30.04,10,-894,10,0.00
2013-2-23,-200,0,200,-100,-100,-100,0,0,100,30.17,30.04,0,-999,0,0.00
2013-2-24,34,10,33,28,-62,-100,77,23,73,30.24,30.15,4,-689,4,0.00
2013-2-25,39,14,33,34,-49,-100,87,33,76,30.32,30.21,5,-607,5,0.00
2013-2-26,40,23,35,37,-19,-100,92,55,89,30.51,30.32,6,-405,6,0.00
2013-2-27,45,27,35,37,-7,-100,91,58,72,30.52,30.42,10,-309,10,0.00
2013-2-28,45,27,35,38,-9,-100,86,55,73,30.43,30.28,9,-315,9,0.00
2013-3-1,44,31,35,40,4,-100,92,62,72,30.36,30.32,10,-218,10,0.00
2013-3-2,45,26,28,35,-7,-100,85,56,67,30.36,30.22,6,-281,6,0.00
2013-3-3,44,22,27,37,-24,-100,88,46,75,30.25,30.05,4,-453,4,0.00
2013-3-4,60,36,31,43,13,-100,93,63,53,30.05,29.68,7,-155,7,0.00
2013-3-5,66,40,32,50,17,-100,92,62,55,29.68,29.51,8,-169,8,0.00
2013-3-6,60,49,42,49,41,-100,87,76,66,29.52,29.43,2,-10,2,0.00
2013-3-7,52,45,44,50,36,-100,93,86,87,29.44,29.30,4,-59,4,0.29
2013-3-8,50,46,47,48,41,-100,94,91,93,29.49,29.30,3,-34,3,0.28
2013-3-9,48,41,38,46,33,-100,94,88,88,29.61,29.47,3,-75,3,0.04
2013-3-10,39,36,33,35,32,28,89,84,79,29.67,29.59,19,1,19,0.00
2013-3-11,33,3,32,28,-87,-100,83,10,76,29.67,29.63,11,-879,11,0.00
2013-3-12,41,9,34,30,-68,-100,83,19,52,29.77,29.65,8,-741,8,0.00
2013-3-13,42,2,34,30,-95,-100,83,3,82,29.91,29.74,2,-943,2,0.00
2013-3-14,37,1,37,25,-95,-100,62,2,62,29.99,29.88,1,-957,1,0.00
2013-3-15,44,2,43,41,-94,-100,90,4,85,29.88,29.51,15,-953,15,0.14
2013-3-16,44,19,41,41,-38,-100,92,41,88,29.51,29.22,22,-551,22,0.49
2013-3-17,45,26,31,42,-9,-100,92,60,50,29.27,29.09,6,-349,6,0.41
2013-3-18,44,16,28,42,-43,-100,94,40,91,29.30,29.14,1,-578,1,0.18
2013-3-19,49,20,35,43,-34,-100,94,45,77,29.44,29.30,3,-482,3,0.02
2013-3-20,47,26,36,41,-15,-100,92,54,76,29.94,29.43,5,-350,5,0.00
2013-3-21,45,33,35,36,11,-100,91,69,70,29.97,29.83,10,-172,10,0.16
2013-3-22,48,30,36,41,1,-100,92,67,72,29.83,29.63,10,-232,10,0.28
2013-3-23,37,20,34,35,-25,-100,93,52,90,29.80,29.66,9,-419,9,0.47
2013-3-24,34,8,31,32,-70,-100,92,19,76,29.88,29.79,3,-789,3,0.00
2013-3-25,36,10,33,28,-64,-100,76,22,72,29.90,29.85,21,-711,21,0.00
2013-3-26,36,7,35,28,-75,-100,72,14,67,29.88,29.82,11,-793,11,0.00
2013-3-27,45,10,38,30,-69,-100,68,15,56,29.83,29.78,11,-736,11,0.00
2013-3-28,-200,0,200,-100,-100,-100,0,0,100,29.89,29.79,1,-981,1,0.00
2013-3-29,40,10,30,26,-63,-100,78,21,57,29.87,29.72,6,-703,6,0.00
2013-3-30,45,27,28,32,-4,-100,83,54,58,29.92,29.72,8,-249,8,0.00
2013-3-31,45,15,26,36,-50,-100,86,27,57,29.94,29.83,8,-601,8,0.00
2013-4-1,36,2,32,27,-95,-100,82,5,70,29.83,29.76,6,-953,6,0.00
2013-4-2,-200,0,200,-100,-100,-100,0,0,100,30.01,29.82,0,-999,0,0.00
2013-4-3,-200,0,200,-100,-100,-100,0,0,100,30.01,29.93,0,-999,0,0.00
2013-4-4,33,1,33,27,-95,-100,78,3,76,29.94,29.85,0,-956,0,0.02
2013-4-5,-200,0,200,-100,-100,-100,0,0,100,30.07,29.84,0,-999,0,0.00
2013-4-6,-200,0,200,37,-89,-100,55,5,47,30.23,30.06,4,-922,4,0.00
2013-4-7,50,1,50,31,-98,-100,49,1,49,30.24,29.81,0,-999,0,0.00
2013-4-8,51,8,40,34,-76,-100,73,11,52,29.81,29.47,2,-821,2,0.00
2013-4-9,47,30,38,42,-1,-100,90,63,73,29.49,29.30,5,-299,5,0.25
2013-4-10,44,28,37,41,-4,-100,92,63,83,29.67,29.33,6,-300,6,0.31
2013-4-11,51,26,42,47,-16,-100,94,54,85,29.44,29.28,4,-417,4,0.06
2013-4-12,54,23,44,46,-27,-100,93,47,50,29.71,29.24,11,-471,11,0.25
2013-4-13,52,26,48,49,-25,-100,94,47,80,29.85,29.71,17,-472,17,0.41
2013-4-14,57,21,50,50,-40,-100,94,36,78,29.91,29.83,14,-592,14,0.00
2013-4-15,54,9,50,47,-76,-100,85,14,50,30.02,29.90,9,-833,9,0.00
2013-4-16,66,24,47,50,-35,-100,92,34,56,30.04,29.86,13,-550,13,0.00
2013-4-17,70,42,48,55,10,-100,93,57,50,30.04,29.73,16,-252,16,0.00
2013-4-18,65,46,44,48,28,-100,81,64,54,30.05,29.76,20,-94,20,0.04
2013-4-19,64,50,42,44,39,35,85,69,47,30.44,30.05,7,1,7,0.02
2013-4-20,73,46,32,47,28,-100,91,60,38,30.51,30.31,7,-48,7,0.00
2013-4-21,71,44,29,45,27,-100,86,63,37,30.31,29.99,6,-59,6,0.00
2013-4-22,65,48,44,48,35,-100,89,71,53,29.99,29.91,8,-61,8,0.00
2013-4-23,81,54,47,57,33,-100,89,61,42,30.17,29.94,6,-110,6,0.00
2013-4-24,74,30,45,58,-26,-100,86,34,56,30.22,30.14,7,-513,7,0.00
2013-4-25,79,50,48,61,21,-100,92,56,48,30.21,29.96,14,-195,14,0.00
2013-4-26,58,46,40,46,31,-100,89,67,48,29.98,29.85,7,-54,7,0.06
2013-4-27,56,41,34,43,31,-100,86,73,58,30.06,29.85,10,-31,10,0.04
2013-4-28,60,44,30,45,30,-100,91,66,51,30.06,29.87,10,-41,10,0.00
2013-4-29,68,51,44,46,39,34,85,64,44,30.13,29.85,6,1,6,0.00
2013-4-30,70,51,37,45,37,32,83,62,40,30.25,30.13,6,0,6,0.00
2013-5-1,73,51,36,48,38,29,87,63,38,30.26,30.09,5,0,5,0.00
2013-5-2,78,48,36,43,18,-100,76,43,28,30.17,30.09,5,-125,5,0.00
2013-5-3,81,41,49,50,-7,-100,69,33,34,30.13,29.99,4,-357,4,0.00
2013-5-4,63,49,45,53,34,-100,86,66,50,30.09,29.94,11,-64,11,0.08
2013-5-5,77,56,45,57,46,38,82,70,51,30.14,30.08,6,1,6,0.00
2013-5-6,82,54,47,57,28,-100,84,58,42,30.11,29.99,10,-106,10,0.00
2013-5-7,62,16,44,56,-12,-100,80,36,38,30.02,29.79,7,-359,7,0.00
2013-5-8,60,34,52,52,-11,-100,90,46,67,29.79,29.63,12,-396,12,0.04
2013-5-9,61,27,43,48,-28,-100,88,37,59,29.80,29.64,21,-488,21,0.00
2013-5-10,68,44,48,52,15,-100,86,60,54,29.89,29.65,11,-191,11,0.00
2013-5-11,62,14,42,50,-64,-100,91,22,65,29.88,29.76,4,-749,4,0.00
2013-5-12,63,7,55,47,-84,-100,69,7,56,29.99,29.87,7,-869,7,0.00
2013-5-13,64,19,46,48,-54,-100,78,21,52,29.88,29.77,9,-636,9,0.00
2013-5-14,52,33,43,46,-6,-100,92,55,70,29.78,29.13,19,-282,19,0.00
2013-5-15,44,1,44,41,-96,-100,87,3,86,29.50,29.09,16,-967,16,0.00
2013-5-16,-200,0,200,-100,-100,-100,0,0,100,29.51,29.41,0,-999,0,0.00
2013-5-17,-200,0,200,-100,-100,-100,0,0,100,29.76,29.50,0,-999,0,0.00
2013-5-18,56,7,50,45,-81,-100,77,10,66,29.75,29.65,1,-870,1,0.00
2013-5-19,70,51,48,54,32,-100,85,65,55,29.84,29.71,7,-111,7,0.00
2013-5-20,62,56,50,56,51,45,89,84,78,29.85,29.79,1,0,1,0.00
2013-5-21,60,56,52,55,51,47,86,82,76,30.02,29.85,2,0,2,0.00
2013-5-22,58,53,47,49,45,36,89,76,59,30.05,29.96,2,0,2,0.00
2013-5-23,53,45,40,42,36,-100,84,73,55,29.97,29.83,3,-10,3,0.04
2013-5-24,46,26,39,44,-17,-100,92,54,35,29.94,29.57,12,-381,12,0.12
2013-5-25,66,35,45,47,-12,-100,75,37,49,30.10,29.95,2,-374,2,0.00
2013-5-26,72,55,41,49,39,-100,80,60,43,30.09,29.90,7,-17,7,0.00
2013-5-27,68,54,40,51,39,-100,83,61,46,29.90,29.55,12,-19,12,0.00
2013-5-28,51,43,47,48,28,-100,90,76,71,29.55,29.42,4,-117,4,0.12
2013-5-29,47,13,42,44,-57,-100,91,28,90,29.71,29.50,2,-702,2,0.00
2013-5-30,55,19,51,52,-44,-100,94,34,88,29.93,29.69,1,-631,1,0.16
2013-5-31,73,8,63,59,-82,-100,75,9,61,30.05,29.93,1,-870,1,0.00
2013-6-1,65,1,65,49,-97,-100,56,1,56,30.25,30.05,1,-978,1,0.00
2013-6-2,70,24,52,49,-47,-100,70,21,46,30.38,30.24,1,-638,1,0.00
2013-6-3,71,44,43,56,13,-100,84,53,46,30.44,30.32,2,-212,2,0.00
2013-6-4,72,58,42,50,44,-100,83,62,45,30.38,30.13,6,0,6,0.00
2013-6-5,73,57,46,54,38,-100,84,61,50,30.16,30.01,4,-79,4,0.00
2013-6-6,75,48,46,57,19,-100,86,54,50,30.12,30.04,5,-213,5,0.00
2013-6-7,60,15,50,52,-59,-100,89,24,62,30.17,30.08,2,-704,2,0.04
2013-6-8,68,40,47,52,4,-100,84,51,55,30.14,29.98,4,-296,4,0.00
2013-6-9,59,22,50,48,-41,-100,80,32,65,30.00,29.90,2,-568,2,0.00
2013-6-10,-200,0,200,-100,-100,-100,0,0,100,29.95,29.90,0,-999,0,0.00
2013-6-11,50,8,45,45,-78,-100,85,15,83,29.93,29.85,2,-841,2,0.00
2013-6-12,-200,0,200,-100,-100,-100,0,0,100,29.86,29.76,0,-999,0,0.00
2013-6-13,-200,0,200,-100,-100,-100,0,0,100,30.00,29.74,0,-999,0,0.00
2013-6-14,64,7,47,49,-81,-100,88,11,56,30.03,29.74,10,-852,10,0.02
2013-6-15,61,11,52,51,-70,-100,84,18,71,29.85,29.64,6,-777,6,0.00
2013-6-16,64,57,52,53,49,46,86,76,63,29.91,29.84,7,1,7,0.00
2013-6-17,71,55,52,58,34,-100,86,63,59,29.91,29.83,8,-120,8,0.00
2013-6-18,71,59,55,62,46,-100,87,75,71,29.92,29.83,8,-55,8,0.00
2013-6-19,82,60,57,66,41,-100,91,67,58,29.93,29.84,3,-131,3,0.00
2013-6-20,67,64,57,61,58,52,88,83,77,29.88,29.74,6,0,6,0.00
2013-6-21,70,61,55,62,56,51,91,83,71,29.83,29.71,10,1,10,0.00
2013-6-22,67,43,53,58,13,-100,87,59,67,29.82,29.62,13,-256,13,0.04
2013-6-23,67,40,54,58,2,-100,88,52,67,29.99,29.62,6,-323,6,0.00
2013-6-24,62,41,48,52,6,-100,88,51,62,30.25,29.99,23,-300,23,0.00
2013-6-25,72,34,48,59,-17,-100,86,40,55,30.38,30.25,2,-463,2,0.00
2013-6-26,68,14,60,53,-68,-100,70,13,59,30.39,30.30,1,-811,1,0.00
2013-6-27,69,7,57,52,-86,-100,82,9,55,30.32,30.12,0,-863,0,0.00
2013-6-28,64,7,58,58,-86,-100,92,8,78,30.12,30.00,1,-905,1,0.00
2013-6-29,73,34,56,55,-26,-100,85,31,53,30.19,30.02,1,-496,1,0.00
2013-6-30,82,65,57,66,52,-100,88,69,57,30.19,30.00,9,-45,9,0.00
2013-7-1,72,62,54,57,52,47,85,70,58,30.02,29.91,4,0,4,0.00
2013-7-2,62,56,50,54,50,45,87,79,71,29.94,29.62,9,1,9,0.00
2013-7-3,68,58,50,60,48,32,92,71,50,29.95,29.56,32,10,32,0.00
2013-7-4,71,62,53,62,57,49,90,82,73,30.18,29.95,1,0,1,0.00
2013-7-5,80,65,50,64,55,47,89,72,54,30.34,30.18,1,0,1,0.00
2013-7-6,80,57,50,64,32,-100,86,63,50,30.35,30.27,32,-117,32,0.00
2013-7-7,88,59,56,69,32,-100,88,57,46,30.42,30.34,3,-162,3,0.00
2013-7-8,84,71,56,62,57,51,83,64,44,30.44,30.33,5,0,5,0.00
2013-7-9,83,69,55,57,52,48,79,58,38,30.35,30.17,5,0,5,0.00
2013-7-10,81,67,53,62,54,47,81,65,50,30.22,30.14,4,0,4,0.00
2013-7-11,73,63,52,54,50,45,78,63,49,30.22,30.13,6,0,6,0.00
2013-7-12,74,63,53,59,54,47,82,71,58,30.23,30.14,2,0,2,0.00
2013-7-13,88,72,55,69,60,-100,88,69,50,30.19,30.13,4,0,4,0.00
2013-7-14,87,71,59,69,56,-100,86,64,48,30.18,30.10,2,-35,2,0.00
2013-7-15,89,75,61,62,58,54,78,58,39,30.16,30.11,6,-3,6,0.00
2013-7-16,89,75,60,67,60,54,83,62,45,30.15,30.10,6,-3,6,0.00
2013-7-17,91,75,59,68,60,52,81,61,44,30.20,30.13,6,-3,6,0.00
2013-7-18,87,74,61,67,59,53,81,62,45,30.24,30.17,5,-3,5,0.00
2013-7-19,86,72,57,64,57,50,76,61,45,30.23,30.12,4,0,4,0.00
2013-7-20,78,68,60,64,58,54,86,73,61,30.16,30.06,12,-3,12,0.00
2013-7-21,82,70,59,67,60,52,84,72,57,30.09,29.94,3,0,3,0.00
2013-7-22,92,76,63,71,63,57,87,68,45,29.99,29.88,6,1,6,0.00
2013-7-23,87,72,62,70,62,56,83,72,56,29.89,29.83,8,-6,8,0.00
2013-7-24,84,68,56,65,59,52,89,74,53,29.91,29.86,8,-3,8,0.00
2013-7-25,78,67,60,67,60,54,92,79,60,29.87,29.81,8,1,8,0.00
2013-7-26,82,67,54,64,55,-100,89,70,15,29.86,29.78,6,1,6,0.00
2013-7-27,85,66,53,63,56,48,90,73,46,29.80,29.52,7,0,7,0.00
2013-7-28,76,63,57,64,50,-100,92,74,59,29.71,29.55,12,-57,12,0.00
2013-7-29,77,63,59,64,54,-100,92,77,62,29.91,29.70,10,-34,10,0.00
2013-7-30,68,62,59,64,59,55,94,89,86,29.92,29.79,6,0,6,0.00
2013-7-31,74,65,59,67,61,56,92,86,77,29.94,29.88,6,0,6,0.00
2013-8-1,92,76,61,72,65,58,92,71,50,29.88,29.62,17,1,17,0.00
2013-8-2,82,67,61,66,60,56,89,78,59,29.77,29.68,7,1,7,0.00
2013-8-3,80,48,57,63,10,-100,93,50,53,30.04,29.74,10,-282,10,0.00
2013-8-4,74,64,56,62,57,53,91,77,60,30.06,29.96,10,1,10,0.00
2013-8-5,71,64,59,61,58,56,92,82,67,29.96,29.69,7,1,7,0.00
2013-8-6,83,62,52,65,45,-100,93,67,46,29.99,29.85,4,-48,4,0.00
2013-8-7,80,64,53,58,53,48,87,70,47,29.98,29.84,4,0,4,0.00
2013-8-8,80,64,50,63,54,46,88,70,48,30.07,29.97,6,1,6,0.00
2013-8-9,80,58,60,65,35,-100,86,60,51,30.12,29.97,6,-134,6,0.00
2013-8-10,76,58,52,56,40,-100,80,63,49,30.15,30.07,4,-58,4,0.00
2013-8-11,81,64,57,61,54,-100,84,69,49,30.08,29.95,5,0,5,0.00
2013-8-12,70,53,53,59,31,-100,84,61,51,30.05,29.94,2,-121,2,0.00
2013-8-13,70,59,50,54,49,-100,85,72,53,30.16,30.04,3,0,3,0.00
2013-8-14,76,61,51,62,53,-100,92,77,59,30.17,30.09,6,-6,6,0.00
2013-8-15,81,46,60,66,8,-100,92,52,61,30.10,29.95,8,-325,8,0.00
2013-8-16,70,53,59,64,33,-100,90,73,79,29.96,29.88,7,-152,7,0.00
2013-8-17,68,55,54,60,39,-100,94,78,72,29.93,29.68,8,-79,8,0.00
2013-8-18,74,22,61,63,-51,-100,94,26,65,29.85,29.67,3,-681,3,0.00
2013-8-19,72,13,52,60,-73,-100,87,14,52,30.25,29.85,0,-813,0,0.00
2013-8-20,-200,0,200,-100,-100,-100,0,0,100,30.31,30.23,0,-999,0,0.00
2013-8-21,-200,0,200,-100,-100,-100,0,0,100,30.25,30.09,0,-999,0,0.00
2013-8-22,67,4,67,52,-90,-100,59,4,59,30.10,29.98,0,-932,0,0.00
2013-8-23,71,1,66,58,-98,-100,72,2,63,29.98,29.78,0,-978,0,0.00
2013-8-24,66,1,66,-100,-100,-100,83,2,81,29.82,29.75,0,-999,0,0.00
2013-8-25,74,25,60,62,-41,-100,94,28,63,29.97,29.37,3,-625,3,0.00
2013-8-26,87,68,59,64,58,51,91,73,44,30.02,29.96,1,0,1,0.00
2013-8-27,84,62,50,62,51,-100,91,72,40,30.06,29.98,1,0,1,0.00
2013-8-28,86,63,50,60,52,45,91,69,37,30.17,30.06,2,-3,2,0.00
2013-8-29,81,65,54,62,55,50,91,71,48,30.15,30.07,2,0,2,0.00
2013-8-30,79,66,57,64,59,53,89,77,58,30.09,29.99,8,0,8,0.00
2013-8-31,77,64,56,59,50,42,91,64,39,30.34,30.06,1,0,1,0.00
2013-9-1,72,60,47,52,47,40,81,64,49,30.40,30.28,2,0,2,0.00
2013-9-2,86,65,51,62,55,48,91,71,44,30.31,30.22,2,0,2,0.00
2013-9-3,82,65,56,67,58,53,91,79,60,30.30,30.19,5,0,5,0.00
2013-9-4,90,68,52,66,55,49,93,68,36,30.21,29.93,8,0,8,0.00
2013-9-5,93,69,53,66,56,49,89,65,40,29.93,29.70,2,0,2,0.00
2013-9-6,65,59,54,60,53,48,91,80,61,29.78,29.65,57,1,57,0.00
2013-9-7,71,57,50,58,50,46,93,78,55,29.99,29.77,8,1,8,0.00
2013-9-8,65,52,47,57,45,-100,92,83,62,30.02,29.97,5,-13,5,0.00
2013-9-9,62,53,46,60,50,-100,94,93,89,30.01,29.88,2,0,2,0.00
2013-9-10,62,53,48,54,43,-100,94,77,67,30.11,30.00,2,-41,2,0.00
2013-9-11,64,57,53,53,51,48,92,80,65,30.13,30.05,2,0,2,0.00
2013-9-12,65,58,54,60,53,-100,94,89,80,30.06,30.01,5,-24,5,0.00
2013-9-13,68,63,60,67,61,59,95,94,90,30.01,29.80,5,0,5,0.00
2013-9-14,61,52,48,60,50,31,96,93,44,30.02,29.79,4,0,4,0.00
2013-9-15,62,53,42,58,50,40,95,90,74,30.01,29.50,13,1,13,0.00
2013-9-16,71,52,46,52,44,40,92,75,43,29.60,29.52,0,0,0,0.00
2013-9-17,60,52,46,58,49,42,95,88,77,29.61,29.29,0,0,0,0.00
2013-9-18,60,55,47,56,50,42,96,85,68,29.83,29.35,0,0,0,0.00
2013-9-19,62,51,44,59,43,-100,94,85,77,29.86,29.68,0,-35,0,0.00
2013-9-20,75,56,47,57,50,45,94,81,54,30.13,29.83,0,0,0,0.00
2013-9-21,65,58,49,61,54,46,93,90,84,30.26,30.12,0,0,0,0.00
2013-9-22,68,63,57,63,61,54,93,90,85,30.32,30.25,0,0,0,0.00
2013-9-23,67,60,54,62,57,52,95,90,82,30.28,30.05,0,0,0,0.00
2013-9-24,73,59,49,67,56,48,95,89,75,30.05,29.86,0,0,0,0.00
2013-9-25,74,62,55,65,58,53,95,89,72,29.87,29.75,0,0,0,0.00
2013-9-26,68,57,53,62,48,-100,95,83,72,29.99,29.83,0,-49,0,0.00
2013-9-27,68,56,50,58,52,47,94,84,67,29.99,29.84,0,0,0,0.00
2013-9-28,65,58,52,59,54,49,93,86,75,29.85,29.65,0,0,0,0.00
2013-9-29,71,59,54,58,54,51,91,83,64,29.67,29.62,1,0,1,0.00
2013-9-30,66,59,54,59,54,50,92,86,73,29.70,29.60,0,0,0,0.00
2013-10-1,62,57,51,58,53,49,93,88,83,29.74,29.68,0,0,0,0.00
2013-10-2,70,61,56,67,58,53,96,91,82,29.82,29.70,0,0,0,0.00
2013-10-3,65,62,58,63,60,56,95,94,92,29.81,29.61,0,0,0,0.00
2013-10-4,75,64,58,65,60,56,95,89,71,29.89,29.61,0,0,0,0.00
2013-10-5,66,60,54,62,57,52,94,89,79,30.19,29.88,0,0,0,0.00
2013-10-6,77,57,46,59,52,44,96,84,53,30.25,30.19,0,0,0,0.00
2013-10-7,68,58,49,62,55,47,95,88,77,30.25,30.19,0,0,0,0.00
2013-10-8,74,62,55,63,58,53,95,87,66,30.23,30.17,0,0,0,0.00
2013-10-9,68,56,46,60,51,39,94,83,67,30.18,29.94,0,0,0,0.00
2013-10-10,55,48,44,42,40,38,83,73,61,30.06,29.97,0,0,0,0.00
2013-10-11,56,51,46,52,48,40,94,89,76,30.06,29.90,0,0,0,0.00
2013-10-12,65,53,45,54,49,43,96,86,65,30.06,29.88,0,0,0,0.00
2013-10-13,52,49,45,50,47,43,96,94,91,29.97,29.73,0,0,0,0.00
2013-10-14,52,48,45,51,47,44,96,94,91,29.75,29.66,0,0,0,0.00
2013-10-15,61,50,44,54,47,42,95,90,74,29.91,29.70,0,0,0,0.00
2013-10-16,61,50,40,59,48,38,96,93,88,29.92,29.63,0,0,0,0.00
2013-10-17,66,58,54,60,54,52,95,89,78,29.96,29.78,0,0,0,0.00
2013-10-18,63,57,50,60,54,49,95,91,81,29.96,29.69,0,0,0,0.00
2013-10-19,64,59,56,62,57,54,95,93,89,29.69,29.58,0,0,0,0.00
2013-10-20,61,56,53,58,54,-100,95,93,91,29.69,29.57,0,-10,0,0.00
2013-10-21,63,57,57,60,50,-100,96,89,87,29.70,29.53,57,-35,57,0.00
2013-10-22,64,60,54,62,58,52,96,92,88,29.54,29.26,0,0,0,0.00
2013-10-23,67,56,46,59,51,-100,95,88,75,29.81,29.19,0,-10,0,0.00
2013-10-24,66,52,41,59,49,40,95,90,78,29.93,29.75,0,0,0,0.00
2013-10-25,64,60,56,62,57,54,96,91,86,29.75,29.53,0,0,0,0.00
2013-10-26,62,59,57,59,56,54,93,89,85,29.66,29.43,0,-10,0,0.02
2013-10-27,65,52,52,56,40,-100,95,80,68,29.44,29.14,0,-80,0,0.69
2013-10-28,66,36,52,58,-4,-100,96,54,63,29.55,28.86,0,-377,0,0.75
2013-10-29,-200,0,200,-100,-100,-100,0,0,100,30.02,29.54,0,-999,0,0.00
2013-10-30,-200,0,200,-100,-100,-100,0,0,100,30.14,30.02,0,-999,0,0.00
2013-10-31,-200,0,200,-100,-100,-100,0,0,100,30.02,29.89,0,-999,0,0.00
2013-11-1,-200,0,200,-100,-100,-100,0,0,100,29.89,29.46,0,-999,0,0.00
2013-11-2,-200,0,200,-100,-100,-100,0,0,100,29.53,29.35,0,-999,0,0.00
2013-11-3,-200,0,200,-100,-100,-100,0,0,100,29.55,28.96,0,-999,0,0.00
2013-11-4,-200,0,200,-100,-100,-100,0,0,100,29.45,28.91,0,-999,0,0.00
2013-11-5,-200,0,200,-100,-100,-100,0,0,100,29.49,29.20,0,-999,0,0.00
2013-11-6,-200,0,200,-100,-100,-100,0,0,100,29.50,29.43,0,-999,0,0.00
2013-11-7,-200,0,200,-100,-100,-100,0,0,100,29.73,29.48,0,-999,0,0.00
2013-11-8,-200,0,200,-100,-100,-100,0,0,100,29.73,29.52,0,-999,0,0.00
2013-11-9,-200,0,200,-100,-100,-100,0,0,100,29.74,29.59,0,-999,0,0.00
2013-12-15,54,54,54,47,47,47,1,1,1,30.13,29.95,0,0,0,0.00
2013-12-16,54,54,54,47,47,47,1,1,1,30.07,29.89,0,0,0,0.00
2013-12-17,54,54,54,47,47,47,1,1,1,30.22,29.93,0,0,0,0.00
2013-12-18,54,54,54,47,47,47,1,1,1,29.94,29.25,0,0,0,0.00
2013-12-19,54,54,54,47,47,47,1,1,1,29.83,29.28,0,0,0,0.00
2013-12-20,54,54,54,47,47,47,1,1,1,30.15,29.83,0,0,0,0.00
2013-12-21,54,52,50,47,47,45,89,45,1,30.02,29.68,0,-42,0,1.45
2013-12-22,50,48,46,45,43,41,85,83,80,29.88,29.68,0,-999,0,0.00
2013-12-23,49,46,45,45,42,40,88,84,81,29.88,29.13,0,-999,0,0.00
2013-12-28,-200,0,200,-100,-100,-100,0,0,100,29.78,29.63,0,-999,0,0.00
2013-12-29,51,32,32,41,10,-100,96,69,60,30.16,29.78,14,-185,14,0.00
2013-12-30,53,42,44,46,28,-100,91,76,67,30.08,29.74,28,-93,28,0.48
2013-12-31,50,35,40,46,12,-100,93,70,84,29.92,29.62,19,-204,19,0.24
2014-1-1,51,47,41,48,44,38,94,89,84,29.66,29.10,27,10,27,0.97
2014-1-2,52,47,41,47,42,39,93,85,66,29.53,29.14,25,6,25,0.28